SAS89T LSZH-EKCH

Flight info

Callsign SAS89T
Flight time N/A
Altitude 34000
Route DEGES Z1 ETAGO DCT HAREM DCT LOHRE DCT BERXO DCT MAKEL N851 GESKA Z711 MONAK
Aircraft A320/M-SDE3FGHIRWY/LB1

Departure

Time 2026-04-30 09:08
Airport Zürich Airport (LSZH)

Arrival

Time N/A
Airport Copenhagen Kastrup Airport (EKCH)
Time Latitude Longitude Altitude Speed Heading
2026-04-30 08:27 47.45355 8.55702 1410 ft 0 kts
2026-04-30 08:42 47.45354 8.55702 1407 ft 0 kts
2026-04-30 08:57 47.45349 8.55701 1407 ft 4 kts
2026-04-30 08:58 47.45331 8.55698 1409 ft 4 kts
2026-04-30 08:58 47.45304 8.55695 1410 ft 4 kts 358°
2026-04-30 08:58 47.45279 8.55702 1410 ft 4 kts 327°
2026-04-30 08:58 47.45265 8.55727 1409 ft 2 kts 277°
2026-04-30 08:59 47.45264 8.55736 1408 ft 0 kts 276°
2026-04-30 09:01 47.45265 8.55732 1407 ft 1 kts 276°
2026-04-30 09:01 47.45268 8.55693 1406 ft 7 kts 277°
2026-04-30 09:01 47.45275 8.55603 1409 ft 10 kts 277°
2026-04-30 09:01 47.45302 8.55494 1409 ft 14 kts 299°
2026-04-30 09:02 47.45486 8.55311 1402 ft 16 kts 335°
2026-04-30 09:02 47.45594 8.55237 1400 ft 18 kts 334°
2026-04-30 09:02 47.45701 8.55161 1399 ft 17 kts 334°
2026-04-30 09:03 47.45819 8.55078 1398 ft 20 kts 335°
2026-04-30 09:03 47.45951 8.54990 1400 ft 22 kts 335°
2026-04-30 09:03 47.46101 8.54885 1385 ft 25 kts 335°
2026-04-30 09:03 47.46258 8.54775 1386 ft 22 kts 332°
2026-04-30 09:04 47.46405 8.54677 1382 ft 24 kts 335°
2026-04-30 09:04 47.46543 8.54581 1385 ft 22 kts 335°
2026-04-30 09:04 47.46681 8.54485 1384 ft 10 kts 335°
2026-04-30 09:04 47.46758 8.54437 1384 ft 14 kts 341°
2026-04-30 09:05 47.46858 8.54378 1379 ft 17 kts 335°
2026-04-30 09:05 47.46944 8.54304 1382 ft 14 kts 323°
2026-04-30 09:05 47.47017 8.54190 1382 ft 16 kts 300°
2026-04-30 09:05 47.47008 8.54045 1381 ft 13 kts 243°
2026-04-30 09:06 47.46951 8.54022 1380 ft 7 kts 159°
2026-04-30 09:06 47.46945 8.54026 1381 ft 0 kts 156°
2026-04-30 09:07 47.46885 8.54065 1382 ft 36 kts 155°
2026-04-30 09:07 47.46447 8.54369 1379 ft 101 kts 155°
2026-04-30 09:08 47.45653 8.54915 1398 ft 150 kts 155°
2026-04-30 09:08 47.44600 8.55632 1578 ft 172 kts 152°
2026-04-30 09:08 47.43531 8.56365 2281 ft 169 kts 146°
2026-04-30 09:08 47.42865 8.57678 2873 ft 160 kts 95°
2026-04-30 09:09 47.42993 8.59262 3544 ft 156 kts 68°
2026-04-30 09:09 47.43616 8.60574 4041 ft 157 kts 52°
2026-04-30 09:09 47.44315 8.61808 4579 ft 158 kts 52°
2026-04-30 09:09 47.45038 8.63096 4969 ft 171 kts 52°
2026-04-30 09:10 47.45796 8.64591 5149 ft 192 kts 64°
2026-04-30 09:10 47.46169 8.66593 5396 ft 215 kts 88°
2026-04-30 09:10 47.46244 8.68899 5748 ft 239 kts 87°
2026-04-30 09:10 47.46331 8.71457 6268 ft 256 kts 88°
2026-04-30 09:11 47.46425 8.74148 7065 ft 261 kts 87°
2026-04-30 09:11 47.46520 8.76807 7882 ft 265 kts 87°
2026-04-30 09:11 47.46621 8.79562 8659 ft 270 kts 86°
2026-04-30 09:11 47.46659 8.82348 9521 ft 271 kts 94°
2026-04-30 09:12 47.46326 8.85119 10330 ft 275 kts 100°
2026-04-30 09:12 47.45908 8.87959 10727 ft 293 kts 101°
2026-04-30 09:12 47.45459 8.91018 10920 ft 316 kts 101°
2026-04-30 09:12 47.44982 8.94295 11061 ft 339 kts 101°
2026-04-30 09:13 47.44479 8.97781 11431 ft 351 kts 101°
2026-04-30 09:13 47.43970 9.01337 12027 ft 356 kts 101°
2026-04-30 09:13 47.43455 9.04934 12651 ft 361 kts 101°
2026-04-30 09:13 47.42932 9.08574 13281 ft 365 kts 101°
2026-04-30 09:14 47.42407 9.12213 13930 ft 368 kts 101°
2026-04-30 09:14 47.42004 9.15962 14493 ft 371 kts 92°
2026-04-30 09:14 47.42106 9.19773 15080 ft 372 kts 80°
2026-04-30 09:14 47.42736 9.23475 15669 ft 373 kts 68°
2026-04-30 09:15 47.43857 9.26908 16297 ft 373 kts 59°
2026-04-30 09:15 47.45161 9.30239 16936 ft 374 kts 59°
2026-04-30 09:15 47.46458 9.33588 17582 ft 376 kts 59°
2026-04-30 09:15 47.47930 9.36794 18213 ft 378 kts 49°
2026-04-30 09:16 47.49813 9.39518 18824 ft 380 kts 38°
2026-04-30 09:16 47.52049 9.41624 19392 ft 383 kts 27°
2026-04-30 09:16 47.54540 9.43064 19952 ft 386 kts 20°
2026-04-30 09:16 47.57095 9.44300 20499 ft 388 kts 18°
2026-04-30 09:17 47.59745 9.45123 21012 ft 393 kts
2026-04-30 09:17 47.62497 9.45347 21510 ft 396 kts
2026-04-30 09:17 47.65257 9.45492 21980 ft 398 kts
2026-04-30 09:17 47.67999 9.45637 22431 ft 400 kts
2026-04-30 09:18 47.70793 9.45786 22901 ft 402 kts
2026-04-30 09:18 47.73595 9.45936 23327 ft 404 kts
2026-04-30 09:18 47.76423 9.46087 23760 ft 406 kts
2026-04-30 09:18 47.79252 9.46238 24122 ft 409 kts
2026-04-30 09:19 47.82106 9.46354 24465 ft 411 kts
2026-04-30 09:19 47.84964 9.46385 24789 ft 414 kts
2026-04-30 09:19 47.87859 9.46363 25118 ft 416 kts
2026-04-30 09:19 47.90763 9.46317 25447 ft 418 kts
2026-04-30 09:20 47.93684 9.46269 25783 ft 420 kts
2026-04-30 09:20 47.96609 9.46234 26109 ft 422 kts
2026-04-30 09:20 47.99544 9.46213 26449 ft 423 kts
2026-04-30 09:20 48.02497 9.46202 26777 ft 425 kts
2026-04-30 09:21 48.05468 9.46201 27105 ft 427 kts
2026-04-30 09:21 48.08433 9.46203 27509 ft 426 kts
2026-04-30 09:21 48.11398 9.46204 27980 ft 425 kts
2026-04-30 09:21 48.14324 9.46201 28433 ft 424 kts